Weather Roundup
Issued by NWS Chicago, IL

Home | Current Version | Previous Version | Text Only | Print | Product List | Glossary On
Versions: 1 2 3 4 5 6 7 8 9 10 11 12 13 14 15 16 17 18 19 20 21 22 23 24 25 26 27 28 29 30 31 32 33 34 35 36 37 38 39 40 41 42 43 44 45 46 47 48 49 50
000
NZUS59 KLOT 272309
HRRLOT

CHICAGO AREA WEATHER ROUNDUP
NATIONAL WEATHER SERVICE CHICAGO/ROMEOVILLE IL
600 PM CDT TUE JUN 27 2017

NOTE: "FAIR" INDICATES FEW OR NO CLOUDS BELOW 12,000 FEET WITH NO
SIGNIFICANT WEATHER AND/OR OBSTRUCTIONS TO VISIBILITY.

* THESE STATIONS ARE NOT UNDER NWS QUALITY CONTROL. THEY ALSO MAY NOT
  REPORT WEATHER SUCH AS PRECIPITATION OR FOG.

ILZ005-006-012>014-019>023-280000-
NORTHEAST ILLINOIS

CITY           SKY/WX    TMP DP  RH WIND       PRES   REMARKS
OHARE          PTSUNNY   76  43  30 W9        30.03F
MIDWAY         PTSUNNY   75  45  34 SW10      30.04F
AURORA         SUNNY     76  45  33 W5        30.04F
LANSING*       MOSUNNY   76  44  32 W3        30.04F
JOLIET*        SUNNY     76  47  36 SW8       30.04F
WAUKEGAN       MOSUNNY   69  51  52 SE12      30.03F
DUPAGE AIRPORT SUNNY     74  46  36 SW5       30.03F
WHEELING       PTSUNNY   76  45  33 VRB3      30.04F
MORRIS*        SUNNY     74  44  33 W6        30.03F
LEWIS AIRPORT* MOSUNNY   76  42  29 SW10      30.04F
$$

WIZ051-052-058>065-066-070>072-280000-
SOUTHEAST WISCONSIN

CITY           SKY/WX    TMP DP  RH WIND       PRES   REMARKS
MILWAUKEE      PTSUNNY   75  46  35 W13       30.01F
KENOSHA*       MOSUNNY   74  46  36 SW7       30.02F
RACINE*        MOSUNNY   67  51  56 S10       30.04F
WAUKESHA       MOSUNNY   72  45  37 W8        30.03F
WEST BEND      MOSUNNY   72  45  37 SW8       30.01F
$$

INZ001>003-010>013-019-020-280000-
NORTHWEST INDIANA

CITY           SKY/WX    TMP DP  RH WIND       PRES   REMARKS
GARY*          MOSUNNY   75  45  33 NE7       30.05F
MICHIGAN CITY* NOT AVBL
RENSSELAER*    NOT AVBL
VALPARAISO     PTSUNNY   74  46  36 S6        30.06F
$$

LMZ740>746-280000-
SOUTHERN LAKE MICHIGAN

STATION/POSITION TIME  SKY/WX   TEMP WIND        PRES    VSBY
                                AIR  DIR/SP/G
                 (UTC)          (F)  (DEG/KT/KT) (MB)    (MI)
HARRISON CRIB    2240            68  120/ 12/ 13   N/A
BURNHAM HARBOR   2300            68                N/A
CALUMET HARBOR   2248            68   80/ 10/ 12 1017.0F
BURNS HARBOR     2240            70   50/  9/ 12 1018.3F
MICHIGAN CITY    2240            68   40/  7/  7   N/A
$$

ABBREVIATIONS USED IN REMARKS
   TC - TEMPERATURE IN CELSIUS
  WCI - WIND CHILL INDEX
   HX - HEAT INDEX
  VSB - VISIBILITY
$$




USA.gov is the U.S. government's official web portal to all federal, state and local government web resources and services.